Location: Berua Church
(35.0423°N, 88.5987°W)
Time: 23:12:06
(UTC+00:00)

Cosmos 2219 Rocket - Pass Details

Date: 08 December 2019
Orbit: 826 x 848 km, 71.0° (Epoch: 18 January)

Event Time Altitude Azimuth Distance (km) Brightness Sun altitude
Rises 23:17:17 0° 223° (SW) 3,356 6.7 -7.3°
Reaches altitude 10° 23:19:53 10° 232° (SW) 2,428 6.1 -7.8°
Maximum altitude 23:24:58 36° 298° (WNW) 1,304 3.6 -8.7°
Drops below altitude 10° 23:30:06 10° 4° (N) 2,453 4.4 -9.7°
Sets 23:32:46 0° 13° (NNE) 3,395 5.0 -10.2°
